GFSMW_850_temp_024.txt.gz
Temp
19 18 18 18 18 17 15 14 13 12 11 12 12 11 11 10 10 10 9 9 9 9 9 8 8 7 7 6 6 6 5 5 5 5 5 5 5 5 6 5 5 5 5
20 18 17 17 17 16 15 14 12 11 12 12 11 11 11 11 10 10 10 9 9 8 7 8 7 7 7 6 5 5 5 4 4 4 4 4 4 4 4 4 4 3 4
20 18 17 16 16 16 15 14 13 11 12 12 12 12 12 11 11 10 9 8 8 8 8 7 6 6 5 5 4 4 4 4 3 3 3 3 3 2 2 2 3 3 2
20 18 17 16 15 15 14 13 12 12 13 13 12 12 12 11 10 9 9 8 7 7 6 6 6 5 5 4 4 4 4 3 2 2 2 2 2 1 1 1 1 1 1
20 18 17 16 15 14 13 13 13 12 12 12 12 11 11 10 9 8 8 7 7 6 6 6 5 5 5 4 3 3 3 2 2 1 1 1 1 1 1 1 0 0 0
20 18 17 16 15 14 13 13 12 11 11 11 11 11 10 9 8 8 8 7 6 6 5 5 5 5 3 3 3 3 2 2 1 1 0 0 0 0 -0 -1 -1 -1 -1
19 18 16 15 13 13 12 12 11 11 10 10 10 10 9 9 9 8 7 7 5 5 4 4 4 3 2 2 2 2 2 1 1 -0 -0 -0 -0 -1 -1 -1 -2 -2 -2
18 17 15 14 13 12 11 11 11 10 9 8 8 8 9 8 8 8 8 6 5 4 3 3 3 2 2 1 1 1 1 0 -0 -1 -1 -2 -1 -1 -2 -2 -2 -2 -3
17 17 15 14 13 12 11 11 10 9 8 8 8 9 8 8 7 6 5 4 4 3 3 2 2 1 1 1 1 1 0 -0 -1 -1 -2 -2 -2 -3 -3 -2 -3 -3 -3
17 17 16 14 13 12 11 11 10 9 8 8 8 8 8 7 5 5 4 3 3 3 2 1 1 1 0 0 0 0 -0 -0 -1 -1 -2 -2 -3 -3 -3 -3 -3 -4 -4
18 17 16 15 13 12 11 10 10 9 8 8 8 7 7 5 5 4 3 3 2 2 1 1 0 0 0 0 -0 -0 -1 -1 -1 -2 -2 -3 -4 -3 -3 -4 -4 -4 -4
18 17 16 15 13 12 11 10 9 8 7 6 7 6 5 5 4 4 3 3 2 1 1 0 -0 -0 -0 -0 -0 -1 -1 -2 -2 -2 -3 -4 -3 -4 -4 -4 -5 -5 -5
18 18 16 14 13 12 11 10 9 8 7 6 5 5 5 5 4 4 3 3 2 1 0 -0 -0 -0 -0 -1 -2 -2 -2 -2 -3 -3 -3 -4 -5 -5 -5 -5 -5 -6 -7
19 18 16 15 13 12 11 9 9 8 6 6 5 5 5 5 4 4 3 2 2 1 0 -0 -1 -1 -1 -1 -2 -2 -3 -3 -3 -4 -4 -5 -5 -5 -5 -6 -7 -8 -8
19 19 18 15 13 12 11 10 9 7 6 6 5 5 6 5 4 3 3 2 1 1 -0 -0 -1 -1 -1 -2 -2 -3 -3 -4 -4 -5 -5 -5 -5 -6 -6 -7 -8 -9 -9
19 19 18 16 14 12 11 10 9 7 6 6 5 6 5 4 4 3 2 2 1 1 0 -0 -1 -1 -2 -2 -3 -3 -4 -4 -5 -5 -5 -6 -6 -6 -7 -8 -9 -9 -10
18 17 16 15 14 13 12 10 9 7 6 6 5 4 4 3 2 2 2 1 1 0 0 -1 -1 -2 -2 -3 -3 -4 -4 -5 -6 -6 -6 -7 -7 -7 -8 -8 -9 -9 -10
16 16 15 15 14 13 12 10 8 7 6 5 4 4 2 2 2 1 1 0 0 -0 -1 -1 -2 -2 -3 -3 -4 -4 -4 -5 -6 -7 -7 -8 -8 -8 -8 -9 -9 -9 -10
15 15 15 14 13 12 11 9 8 7 6 4 2 -0 1 1 1 0 0 -0 -1 -1 -1 -2 -2 -2 -3 -3 -4 -5 -5 -6 -7 -7 -8 -8 -8 -9 -9 -9 -9 -9 -9
15 14 14 13 12 11 9 8 7 5 3 1 0 0 0 1 1 -1 -1 -2 -2 -2 -2 -2 -2 -3 -3 -4 -4 -5 -6 -6 -7 -8 -8 -9 -9 -9 -9 -9 -9 -10 -10
13 13 12 11 9 8 6 5 3 1 -1 -1 -2 -1 0 -0 -2 -3 -3 -3 -3 -3 -3 -3 -3 -3 -4 -5 -5 -5 -6 -7 -7 -8 -8 -9 -9 -9 -9 -9 -10 -10 -11
12 10 9 7 4 4 3 1 -0 -2 -2 -1 -1 1 0 -1 -3 -3 -3 -3 -3 -3 -3 -3 -4 -4 -4 -5 -5 -6 -6 -7 -7 -8 -8 -9 -9 -9 -9 -9 -10 -11 -11
8 6 6 4 2 0 1 0 -2 -2 -2 -2 1 0 -2 -3 -3 -3 -4 -4 -4 -4 -4 -4 -4 -4 -5 -5 -6 -6 -6 -7 -7 -8 -9 -9 -9 -9 -10 -10 -11 -11 -11
4 3 2 1 -0 -1 -2 -2 -2 -2 -0 0 -0 -3 -2 -2 -3 -4 -4 -4 -4 -5 -4 -4 -4 -5 -5 -5 -6 -6 -7 -7 -8 -8 -9 -9 -9 -10 -10 -10 -10 -11 -11
2 1 0 -0 -0 -1 -1 -2 -1 -0 -0 -1 -1 -1 -2 -2 -3 -4 -4 -4 -5 -6 -6 -5 -5 -5 -5 -6 -6 -6 -7 -8 -8 -8 -9 -9 -9 -10 -10 -10 -10 -10 -11
1 0 0 0 -0 -1 -2 -2 -1 -1 -1 -1 -1 -2 -2 -3 -4 -4 -5 -4 -5 -5 -5 -5 -5 -5 -6 -6 -6 -7 -7 -8 -8 -9 -9 -9 -9 -9 -10 -10 -10 -10 -11

GFSMW_850_temp_030.txt.gz
Temp
17 17 16 16 16 15 15 15 15 14 14 13 13 13 13 13 12 12 12 12 12 12 11 11 11 10 9 8 8 8 7 7 6 5 4 4 4 4 4 4 3 3 3
17 17 17 16 16 16 15 15 15 15 14 14 13 14 13 13 12 12 11 11 11 11 11 11 10 10 10 9 8 7 7 5 4 3 3 3 3 3 3 3 2 2 3
18 17 17 17 16 15 16 15 15 15 15 14 13 13 13 12 11 11 10 11 10 10 10 10 10 9 8 8 6 5 4 3 3 3 3 2 2 2 1 1 1 1 1
19 18 17 17 17 16 16 15 15 13 13 13 12 13 12 11 11 11 10 10 9 10 10 10 9 8 7 6 6 5 4 3 3 2 2 2 1 1 1 1 0 0 0
19 18 18 17 17 16 15 16 13 12 12 12 12 12 12 12 11 10 10 9 9 9 9 9 8 6 6 6 5 5 4 3 2 2 2 1 1 1 0 -0 -0 -0 -0
17 17 17 17 16 16 15 14 13 12 11 12 12 12 12 11 10 10 9 9 9 8 7 6 6 6 5 5 5 4 2 2 1 1 1 0 0 -0 -1 -1 -1 -1 -1
17 17 17 16 16 15 15 14 14 13 12 11 11 11 11 11 10 10 9 8 8 7 7 6 5 5 4 4 3 2 2 1 1 0 -0 -1 -1 -1 -2 -2 -2 -2 -2
17 17 17 16 16 15 14 12 13 13 12 12 11 11 11 10 10 9 8 8 7 6 5 5 4 4 3 3 2 2 1 0 0 -0 -1 -1 -1 -1 -1 -2 -2 -3 -3
17 17 17 16 16 15 13 14 13 13 12 12 11 10 10 9 9 8 8 7 6 5 4 4 4 3 3 2 2 1 0 0 -0 -1 -1 -1 -1 -2 -2 -2 -3 -4 -5
17 17 17 16 14 13 14 13 13 13 12 11 10 10 9 9 8 8 7 6 5 4 5 4 4 3 2 1 1 0 -0 -0 -1 -1 -1 -2 -2 -3 -3 -3 -4 -5 -5
17 17 16 15 15 14 13 13 13 12 12 11 11 10 9 8 8 7 6 5 4 3 4 4 3 2 1 1 0 -1 -1 -1 -1 -1 -2 -2 -2 -3 -3 -4 -4 -5 -5
17 17 17 16 15 14 14 14 13 13 13 12 11 10 9 8 8 7 6 5 3 3 3 3 2 2 1 1 0 -1 -1 -1 -1 -2 -3 -3 -3 -4 -4 -5 -5 -5 -5
17 17 16 16 16 15 15 14 14 13 12 11 10 9 8 8 7 6 5 4 3 3 2 2 2 2 1 0 -0 -1 -1 -2 -2 -3 -3 -4 -4 -4 -5 -5 -5 -6 -6
17 17 16 16 16 15 15 14 12 11 11 10 9 8 8 7 6 5 4 3 3 2 1 2 2 1 0 -0 -1 -1 -1 -2 -3 -4 -4 -4 -4 -5 -5 -6 -6 -6 -7
16 16 15 15 15 14 13 12 12 11 10 10 9 8 8 7 5 4 4 3 2 1 0 1 1 1 0 -0 -1 -1 -2 -2 -3 -3 -4 -4 -5 -5 -6 -6 -7 -7 -8
17 17 17 15 15 14 13 12 11 11 10 9 8 7 6 5 5 4 2 2 1 -1 1 0 1 0 -0 -1 -1 -2 -2 -3 -3 -4 -4 -5 -5 -6 -7 -7 -8 -8 -8
15 15 15 15 15 15 14 13 12 11 9 8 7 6 5 5 3 2 1 -0 -1 -1 0 1 -0 -1 -1 -1 -2 -2 -3 -3 -3 -4 -5 -5 -6 -6 -7 -8 -8 -9 -9
15 14 14 14 14 14 13 12 10 9 8 7 6 5 4 3 2 -0 -1 -0 -0 -1 1 -0 -1 -1 -2 -2 -2 -3 -3 -4 -4 -5 -5 -6 -6 -7 -8 -8 -8 -8 -9
14 14 14 14 14 12 11 10 8 7 6 5 3 1 0 -0 -1 -0 0 -1 0 0 -1 -1 -2 -2 -2 -2 -3 -3 -4 -4 -5 -5 -6 -6 -7 -8 -8 -8 -8 -8 -9
13 13 13 13 13 12 10 9 8 6 4 2 0 -1 -1 0 0 -0 -1 -0 -1 -1 -2 -2 -3 -3 -3 -3 -3 -3 -4 -4 -5 -5 -6 -6 -7 -8 -8 -8 -8 -9 -9
11 11 11 11 10 8 7 7 4 2 0 1 0 0 0 -0 -2 -1 -1 -1 -2 -2 -3 -2 -2 -3 -3 -4 -4 -4 -4 -5 -5 -6 -6 -7 -7 -8 -8 -8 -8 -9 -10
8 8 8 7 5 4 5 4 4 2 1 0 0 -0 -1 -1 -1 -1 -1 -2 -2 -2 -2 -3 -3 -4 -4 -4 -5 -5 -5 -5 -6 -6 -6 -7 -7 -8 -8 -8 -9 -10 -10
5 5 5 4 3 3 3 2 2 1 -0 -1 -1 -1 -0 -1 -1 -1 -2 -2 -2 -2 -3 -3 -4 -4 -4 -4 -5 -5 -5 -5 -6 -6 -6 -7 -7 -8 -8 -8 -9 -10 -10
3 2 2 2 1 1 0 -0 -1 -1 -0 -0 -0 -0 -0 -1 -1 -2 -2 -2 -2 -3 -4 -5 -5 -5 -5 -5 -5 -6 -5 -5 -6 -6 -7 -7 -8 -8 -8 -9 -9 -10 -10
1 1 1 0 -0 -0 -0 -0 -0 -0 -0 -0 -1 -1 -1 -2 -2 -2 -2 -3 -3 -4 -4 -5 -5 -5 -5 -5 -6 -6 -6 -6 -6 -6 -7 -8 -8 -8 -9 -9 -9 -9 -10
0 -0 -0 -0 -1 -1 -1 -1 -2 -2 -2 -2 -2 -2 -2 -2 -2 -3 -3 -3 -4 -4 -5 -5 -5 -5 -6 -5 -6 -6 -6 -6 -6 -7 -7 -7 -8 -8 -9 -9 -9 -9 -10

GFSMW_850_temp_033.txt.gz
Temp
16 16 15 15 14 13 13 13 13 13 13 13 13 12 12 12 12 12 12 11 11 11 11 11 10 10 10 10 9 9 8 8 8 7 6 5 4 3 4 3 3 3 2
16 15 15 15 14 14 13 13 13 13 13 13 13 13 12 12 12 11 11 11 11 11 11 10 10 10 10 9 9 9 8 7 6 5 4 3 3 3 3 2 3 2 2
16 16 16 16 15 15 15 15 14 14 13 13 13 12 12 12 11 11 11 10 11 10 9 9 9 9 9 9 9 8 7 6 5 4 3 2 2 2 2 1 1 1 1
16 16 16 16 16 16 16 16 15 15 14 13 13 12 13 12 12 12 11 10 9 9 9 9 9 9 7 7 7 6 6 5 4 3 2 2 1 1 0 0 0 0 0
17 16 16 16 16 15 15 15 15 14 14 13 12 13 11 11 12 11 10 9 9 9 9 9 8 6 7 7 6 5 4 4 3 2 1 1 0 0 0 0 -0 -1 -1
17 17 17 16 16 15 15 15 14 15 13 13 14 12 10 11 12 11 9 9 9 9 8 8 7 6 5 5 5 4 4 2 1 1 0 0 -0 -1 -1 -1 -2 -2 -1
17 16 16 16 16 16 16 15 15 13 12 12 11 11 11 11 11 11 10 9 9 8 7 7 6 5 5 5 4 3 2 2 1 0 -0 -0 -1 -1 -1 -1 -2 -2 -2
17 17 17 16 15 16 16 14 15 15 13 12 11 11 11 10 10 10 9 8 8 7 6 5 5 4 4 4 3 2 2 1 0 -0 -0 -1 -1 -1 -2 -2 -3 -3 -4
18 17 17 16 16 16 16 17 15 14 13 13 12 12 11 11 11 8 8 8 7 5 5 5 4 4 4 3 2 2 1 0 -0 -1 -1 -1 -1 -2 -2 -3 -3 -3 -4
18 17 16 16 16 17 16 16 15 14 13 12 12 12 12 11 10 9 9 8 7 6 5 4 2 3 3 2 2 1 1 -0 -1 -1 -1 -1 -2 -2 -3 -3 -3 -3 -4
17 18 18 17 17 17 16 15 14 13 13 12 12 12 11 10 9 8 8 8 7 6 5 4 3 3 2 2 1 1 0 -1 -1 -1 -2 -2 -3 -3 -3 -3 -4 -5 -5
19 19 18 17 17 17 16 15 14 13 13 12 11 10 10 9 9 8 8 7 6 5 4 3 3 2 2 2 1 1 -0 -1 -1 -2 -2 -2 -3 -4 -4 -4 -5 -5 -6
17 16 16 17 16 16 15 15 13 12 12 11 11 10 9 9 9 8 8 8 6 4 3 3 2 2 2 1 1 0 -0 -1 -1 -2 -3 -3 -4 -4 -5 -5 -5 -6 -6
18 17 16 16 16 15 14 13 12 12 11 11 11 10 10 10 9 8 7 6 4 3 3 1 1 0 1 1 0 -0 -1 -1 -2 -2 -3 -3 -4 -5 -5 -5 -6 -6 -7
16 16 15 16 16 14 13 12 12 11 11 11 11 10 10 9 8 7 5 4 3 2 1 -0 -1 -1 0 0 -0 -1 -1 -2 -2 -3 -3 -4 -4 -5 -5 -6 -6 -7 -8
15 15 16 15 15 14 13 12 12 11 11 11 10 9 7 6 5 4 4 2 1 0 -1 -1 0 -1 0 -0 -1 -1 -2 -2 -3 -3 -3 -4 -4 -5 -5 -6 -7 -8 -8
15 16 15 15 15 14 13 13 12 11 10 9 8 7 6 6 4 3 2 0 -1 -1 -0 -0 -1 -1 -1 -1 -1 -2 -2 -3 -3 -3 -4 -4 -5 -6 -6 -7 -7 -8 -9
14 14 14 14 14 13 12 12 11 9 8 7 6 6 5 4 1 0 -1 -1 -1 0 -0 -1 -1 -1 -1 -2 -2 -2 -2 -3 -3 -4 -4 -5 -5 -6 -7 -7 -8 -8 -9
14 14 13 13 13 13 12 11 9 8 7 5 4 3 1 0 -1 -1 -1 -0 -0 -1 -1 -1 -1 -1 -1 -2 -3 -3 -3 -3 -4 -4 -5 -5 -5 -6 -7 -7 -8 -8 -9
13 12 12 12 11 11 10 8 7 5 4 3 1 -0 -1 -1 -1 -0 0 -0 -2 -1 -1 -1 -1 -1 -2 -2 -3 -3 -4 -4 -4 -5 -5 -5 -6 -6 -7 -8 -8 -8 -9
11 10 10 9 8 7 6 6 4 3 2 1 1 1 0 -0 -0 -1 -1 -1 -1 -2 -2 -2 -2 -2 -3 -3 -4 -4 -4 -5 -5 -5 -5 -6 -6 -6 -7 -7 -8 -8 -9
7 7 7 6 4 3 4 3 3 3 2 1 0 0 -1 -1 -0 -1 -1 -1 -2 -2 -2 -2 -2 -3 -3 -4 -4 -4 -4 -5 -5 -5 -5 -6 -6 -7 -7 -7 -8 -9 -9
5 4 5 4 3 2 2 2 1 0 0 -0 -0 -0 -0 -0 -1 -1 -1 -2 -2 -2 -2 -3 -3 -3 -3 -4 -5 -5 -5 -6 -6 -6 -5 -6 -6 -7 -7 -8 -8 -9 -9
3 3 3 2 2 1 0 0 -1 -1 -0 -1 -1 -1 -1 -1 -2 -2 -2 -2 -2 -3 -3 -3 -3 -4 -4 -4 -4 -5 -6 -6 -6 -6 -6 -6 -6 -7 -7 -8 -8 -9 -9
2 1 1 -0 -1 -1 -1 -1 -1 -1 -1 -1 -1 -2 -2 -3 -2 -3 -3 -3 -3 -4 -4 -4 -4 -4 -4 -5 -5 -5 -5 -6 -6 -6 -6 -6 -6 -7 -7 -8 -8 -9 -9
-0 -1 -1 -1 -2 -2 -1 -2 -2 -2 -1 -2 -2 -2 -2 -2 -3 -3 -3 -3 -4 -4 -5 -4 -4 -4 -5 -5 -5 -5 -6 -6 -6 -6 -6 -6 -6 -7 -7 -8 -8 -9 -9

GFSMW_850_temp_036.txt.gz
Temp
16 16 15 14 14 13 14 14 13 13 13 12 12 12 12 12 12 11 12 12 12 11 10 9 9 9 9 9 8 7 7 6 6 6 5 5 5 4 4 3 3 3 2
16 16 16 15 15 15 14 14 13 13 13 13 12 12 12 12 11 11 12 11 11 10 9 9 9 9 8 8 7 7 6 7 6 6 5 5 4 3 3 2 2 2 2
15 16 16 16 16 15 15 14 14 14 13 13 13 13 12 11 11 11 11 11 10 9 9 9 9 8 8 7 7 6 6 7 7 5 4 3 2 2 2 2 1 1 0
16 16 16 16 16 15 15 14 14 14 13 13 13 13 13 12 12 11 11 10 9 9 9 8 8 8 7 7 7 7 7 7 6 5 4 2 2 1 0 0 0 -0 -0
18 18 17 17 16 16 15 15 14 14 13 13 13 12 12 12 11 11 10 9 9 8 8 8 8 7 7 7 6 6 7 6 6 4 3 1 1 0 -0 -1 -1 -1 -1
18 18 18 17 16 16 16 15 15 15 14 13 13 12 12 11 10 10 9 9 9 8 8 8 7 7 6 6 6 7 5 5 4 3 1 1 0 -0 -1 -1 -1 -1 -2
19 18 18 17 17 17 16 15 15 15 14 14 13 12 12 10 9 10 10 9 9 9 8 8 8 6 6 7 5 5 5 4 3 2 0 -0 -1 -1 -1 -1 -2 -2 -3
18 18 18 18 17 17 16 16 15 14 14 14 14 12 11 10 9 9 9 9 10 9 8 8 6 5 6 6 4 4 4 3 2 1 -0 -1 -1 -1 -2 -2 -2 -3 -3
18 19 18 18 17 17 17 16 15 15 16 15 13 11 10 11 10 9 9 9 9 9 8 7 7 5 4 4 4 4 3 2 1 0 -1 -1 -1 -2 -2 -2 -3 -3 -4
17 18 18 18 18 17 17 17 16 16 16 15 14 13 12 12 11 10 10 9 8 8 7 6 6 4 3 3 3 3 2 1 0 -1 -1 -1 -2 -2 -3 -3 -3 -4 -4
18 19 18 18 18 17 16 16 16 15 15 14 13 12 11 12 12 12 11 9 8 7 6 6 5 3 3 3 2 2 1 0 -0 -1 -1 -2 -2 -3 -3 -3 -4 -4 -5
17 17 17 17 17 18 17 16 16 16 15 15 13 12 12 12 11 10 10 9 8 7 6 5 4 3 2 2 1 1 0 -0 -1 -1 -1 -2 -2 -3 -3 -4 -4 -5 -5
19 18 17 18 17 16 16 16 16 16 15 15 14 13 11 10 10 10 9 8 7 5 4 4 3 2 1 0 -1 1 0 -0 -1 -1 -2 -2 -3 -3 -3 -4 -5 -5 -6
18 18 17 17 16 16 16 16 16 16 15 14 14 11 10 9 9 8 7 7 5 5 4 3 2 1 -0 -0 -0 0 -0 -1 -1 -2 -2 -3 -3 -3 -4 -5 -5 -6 -6
17 17 16 16 15 15 15 15 15 14 13 11 9 9 9 8 8 8 7 6 4 3 2 1 0 -1 -0 -0 -0 -0 -0 -1 -1 -2 -2 -3 -3 -4 -4 -5 -6 -6 -7
14 14 14 14 13 13 13 13 13 12 11 10 9 8 8 7 7 6 6 5 4 2 0 -1 -1 -0 -1 -2 -2 -1 -1 -1 -2 -2 -3 -3 -4 -4 -5 -5 -6 -7 -7
14 14 15 15 14 14 13 12 11 10 9 8 8 7 6 5 5 4 3 2 1 -0 -1 -1 -1 -1 -1 -2 -1 -1 -2 -2 -2 -3 -3 -4 -4 -5 -5 -6 -6 -7 -8
14 14 14 14 14 14 14 13 11 9 8 7 6 5 5 4 3 2 1 -1 -2 -1 -1 -0 -1 -2 -2 -1 -2 -2 -2 -3 -3 -3 -3 -4 -4 -5 -6 -6 -6 -7 -8
12 13 13 13 12 12 12 11 9 7 6 5 4 4 3 2 0 -1 -1 -1 -0 -1 -0 -1 -1 -2 -1 -2 -2 -2 -3 -3 -3 -3 -4 -5 -5 -5 -6 -6 -6 -7 -8
12 12 11 11 10 10 9 7 7 5 5 3 2 1 1 -0 -0 -1 -1 -0 -1 -1 -1 -2 -2 -2 -2 -2 -2 -3 -3 -3 -4 -4 -5 -5 -5 -6 -6 -6 -6 -7 -7
10 9 8 8 8 6 5 5 3 3 2 1 1 1 0 -0 -0 -0 -1 -1 -1 -1 -1 -2 -2 -2 -2 -3 -3 -3 -4 -4 -4 -4 -5 -5 -5 -6 -6 -6 -7 -7 -8
7 6 6 5 3 3 3 2 2 1 0 0 0 0 -0 -0 -1 -1 -1 -1 -1 -2 -2 -2 -2 -2 -3 -3 -3 -4 -4 -5 -5 -5 -5 -5 -6 -5 -6 -7 -6 -7 -8
5 4 4 3 2 1 1 2 0 -0 -0 -1 -1 -1 -1 -1 -1 -1 -2 -2 -2 -2 -2 -3 -3 -3 -3 -3 -4 -4 -4 -5 -5 -5 -5 -6 -6 -6 -6 -7 -7 -7 -8
3 3 2 2 1 0 0 0 -0 -0 -0 -1 -1 -1 -1 -1 -2 -2 -2 -2 -3 -3 -4 -4 -4 -4 -4 -4 -4 -4 -5 -5 -5 -5 -6 -6 -6 -6 -6 -6 -7 -7 -8
2 1 1 1 0 -1 -0 -1 -1 -1 -1 -1 -1 -2 -2 -2 -2 -2 -3 -3 -3 -4 -5 -5 -5 -5 -5 -5 -5 -5 -5 -6 -5 -6 -6 -6 -6 -6 -6 -7 -7 -7 -8
0 0 -0 -0 -1 -1 -1 -1 -1 -1 -1 -2 -2 -2 -2 -2 -3 -3 -2 -3 -3 -4 -5 -5 -6 -6 -6 -6 -6 -6 -6 -6 -6 -7 -6 -6 -6 -6 -6 -7 -7 -7 -7

GFSMW_850_temp_039.txt.gz
Temp
16 14 14 14 14 14 13 13 12 13 12 12 13 12 12 12 12 12 12 12 12 11 11 10 10 9 9 9 8 8 8 8 7 6 5 6 5 4 4 3 3 2 2
15 15 15 14 14 14 14 13 13 13 13 13 13 12 12 12 12 12 12 11 11 11 10 10 9 9 9 8 8 8 8 7 6 6 6 5 4 4 3 3 2 2 1
15 15 15 15 15 15 14 14 13 13 13 13 13 12 12 12 12 12 11 11 11 11 10 9 9 9 9 8 8 7 7 6 5 6 6 5 5 3 3 2 2 1 1
17 17 16 16 15 15 15 14 14 14 13 13 13 13 12 12 12 12 11 11 11 10 9 9 9 8 8 7 7 6 6 5 5 6 6 6 4 3 3 1 0 1 0
17 17 17 17 17 16 16 15 14 14 14 14 13 13 12 12 12 11 11 10 10 10 9 9 8 8 8 7 6 6 5 6 6 6 5 4 3 2 1 1 1 -0 -1
18 17 17 17 17 17 16 16 15 14 14 14 14 13 12 12 11 11 10 10 10 9 9 8 8 8 7 6 6 6 7 6 5 5 5 3 1 1 0 0 0 -1 -2
18 19 18 18 17 17 17 16 15 15 15 14 14 13 13 12 11 11 10 10 10 9 9 8 8 7 6 6 6 6 6 5 4 4 3 2 1 0 -1 -1 -1 -1 -1
18 19 19 19 19 18 18 17 15 16 14 13 14 14 13 12 11 10 10 10 9 9 8 8 7 6 6 6 6 6 5 4 4 3 3 2 0 -0 -1 -2 -2 -2 -1
17 18 18 19 19 18 18 18 17 15 15 14 15 14 13 13 12 10 10 9 9 9 8 7 6 6 6 6 5 4 4 3 3 2 2 0 -0 -1 -1 -2 -2 -3 -3
18 18 18 17 17 17 16 16 16 16 15 15 15 14 14 13 10 10 10 9 8 8 8 7 6 5 5 5 4 3 2 2 2 1 0 -0 -1 -2 -2 -2 -3 -3 -4
19 19 19 18 17 16 16 16 15 15 16 16 15 14 14 13 12 12 11 10 9 8 7 6 5 5 3 3 2 2 1 0 1 0 -0 -1 -1 -2 -2 -3 -3 -4 -4
19 19 19 19 18 18 17 17 17 16 16 15 15 14 14 13 13 12 11 9 8 7 6 5 5 3 2 2 1 1 0 0 0 -0 -1 -1 -2 -2 -3 -3 -4 -4 -5
18 19 19 18 17 17 17 16 16 16 15 15 15 14 14 13 12 10 10 9 8 7 5 5 4 3 2 1 0 -0 -1 -0 -0 -1 -1 -1 -2 -2 -3 -3 -4 -4 -5
17 17 16 16 17 16 16 16 16 15 15 15 14 13 11 9 9 9 9 8 8 5 5 4 3 1 1 -0 -1 -0 -1 -1 -1 -1 -1 -1 -2 -3 -3 -4 -4 -5 -5
14 14 14 14 14 15 14 14 14 13 12 11 11 10 9 9 8 8 7 6 5 4 3 3 2 1 -0 -1 -0 -1 -2 -1 -0 -1 -1 -2 -2 -3 -3 -4 -4 -5 -6
13 13 13 13 13 13 13 12 11 11 10 9 9 8 8 7 7 6 5 5 4 3 2 1 -0 -1 0 -1 -1 -1 -2 -1 -1 -1 -2 -2 -2 -3 -4 -4 -5 -5 -6
12 13 13 14 14 13 13 13 12 11 10 9 8 7 7 6 5 5 5 4 3 1 0 0 -0 -0 -0 -1 -1 -1 -2 -2 -1 -2 -2 -2 -3 -3 -4 -4 -5 -5 -6
12 13 13 13 13 13 13 12 11 10 9 8 6 5 5 5 4 3 2 1 1 1 0 -0 -1 -1 -1 -2 -2 -2 -2 -2 -2 -2 -3 -3 -3 -4 -4 -5 -5 -6 -6
12 12 12 12 12 11 11 10 10 8 7 6 5 4 3 3 3 2 1 -0 0 -0 -1 -1 -1 -1 -1 -2 -2 -2 -2 -2 -2 -2 -3 -3 -3 -4 -5 -5 -6 -6 -6
10 10 10 10 10 10 9 8 7 6 5 3 2 2 1 1 0 -0 -1 -0 -0 -1 -1 -1 -1 -1 -2 -2 -2 -3 -3 -3 -3 -2 -3 -4 -4 -4 -5 -5 -6 -6 -6
8 8 8 8 8 6 6 6 4 3 2 1 1 0 0 0 0 -0 -0 -0 -1 -1 -1 -1 -1 -2 -2 -2 -3 -3 -4 -4 -4 -4 -3 -4 -4 -4 -5 -5 -6 -6 -6
7 7 7 6 4 4 4 3 3 1 1 0 0 0 -0 0 -0 -0 -1 -1 -1 -1 -2 -2 -2 -2 -2 -3 -3 -4 -4 -4 -5 -4 -4 -4 -4 -5 -5 -6 -6 -6 -7
5 5 5 4 3 2 2 2 0 -0 -0 -0 -0 -0 -0 -1 -1 -1 -1 -2 -2 -3 -3 -3 -3 -3 -4 -4 -4 -4 -5 -5 -5 -5 -5 -5 -5 -5 -6 -6 -6 -6 -7
3 3 3 2 1 1 1 1 -0 -1 -1 -1 -1 -1 -1 -1 -2 -2 -2 -2 -3 -3 -4 -4 -5 -5 -6 -7 -7 -7 -6 -5 -5 -5 -6 -6 -6 -6 -6 -7 -6 -7 -7
2 2 2 1 0 -1 -0 -1 -1 -1 -1 -1 -1 -1 -2 -2 -2 -2 -3 -3 -4 -5 -6 -6 -8 -8 -8 -8 -9 -8 -8 -8 -7 -7 -6 -6 -6 -6 -6 -6 -7 -7 -7
1 0 0 -0 -1 -1 -1 -1 -1 -1 -1 -2 -2 -2 -2 -2 -3 -3 -3 -4 -5 -6 -7 -7 -8 -9 -10 -9 -8 -8 -8 -8 -8 -7 -7 -7 -7 -6 -6 -6 -7 -7 -7

GFSMW_850_temp_042.txt.gz
Temp
14 13 13 13 12 12 11 11 10 10 11 11 10 11 11 11 10 12 12 12 12 12 12 11 11 10 10 9 9 9 9 7 8 7 7 5 4 4 4 4 4 3 3
16 14 13 13 12 12 12 11 11 11 11 11 11 11 11 11 10 10 11 12 12 12 12 11 10 10 9 9 9 9 8 7 8 7 6 8 7 4 3 4 3 3 2
17 15 14 14 13 13 12 12 12 12 11 11 11 11 11 11 10 12 12 12 12 11 11 11 10 10 9 9 9 9 8 7 6 6 6 7 9 7 6 3 3 2 2
17 17 16 15 14 13 13 12 12 12 12 11 12 11 12 12 11 11 12 12 12 11 11 11 10 9 9 9 9 9 8 7 6 7 6 4 5 6 7 4 3 2 2
19 18 17 16 15 14 13 12 12 12 12 11 11 11 11 12 12 10 11 12 11 11 10 10 9 9 9 9 8 8 8 7 6 6 4 4 4 3 4 5 5 4 3
19 19 18 17 16 15 14 13 13 12 12 11 13 12 12 11 11 12 12 11 11 10 10 9 9 8 8 8 8 7 7 7 6 5 4 4 4 5 4 4 4 3 3
20 19 19 18 17 16 14 15 15 14 13 14 13 13 13 13 12 12 12 12 11 10 10 9 8 8 8 7 7 6 6 6 5 4 3 3 3 3 2 2 2 2 2
20 20 19 19 18 17 15 14 16 15 15 14 14 13 13 13 12 10 9 10 10 10 9 9 8 8 7 7 6 5 5 4 4 2 2 2 2 1 1 1 1 1 1
20 20 19 19 18 17 15 14 13 13 13 15 13 15 14 13 12 10 10 10 10 9 9 8 8 8 7 5 5 5 3 3 2 1 1 1 1 1 1 0 0 -0 -0
18 18 18 18 17 16 15 13 13 13 12 14 13 14 14 14 13 11 11 10 9 9 9 8 8 7 6 5 5 4 1 1 1 0 0 0 1 0 -0 -0 -0 -0 -0
19 18 17 16 15 15 14 13 13 13 13 12 13 14 14 13 13 13 12 12 11 10 9 8 7 7 6 4 3 1 0 -0 1 -0 -0 -0 -0 -0 -0 -1 -1 -1 -1
19 18 17 16 16 16 14 13 13 13 12 12 11 13 13 13 13 13 12 11 10 9 8 8 7 6 4 3 2 0 -0 1 -0 -0 0 -0 -0 -1 -1 -1 -1 -1 -1
18 17 16 16 15 15 14 13 14 12 12 13 14 14 14 14 13 12 11 10 9 9 8 6 5 3 3 2 1 -0 -1 -0 -1 -1 -0 -0 -0 -0 -1 -1 -1 -1 -2
18 18 16 15 14 14 14 14 14 15 15 14 13 13 12 11 10 10 9 8 8 7 7 5 3 2 2 1 -0 -1 -0 -0 -0 -2 -1 -1 -1 -1 -1 -1 -1 -2 -2
15 15 15 14 13 12 13 11 12 12 12 12 11 11 10 9 9 9 8 8 7 7 5 4 2 2 0 0 1 -1 -0 -1 -2 -2 -1 -1 -2 -1 -1 -2 -2 -2 -2
13 13 13 12 11 11 10 12 12 11 11 11 10 9 9 8 8 8 7 7 6 5 3 3 3 2 1 1 0 -1 -1 -1 -2 -2 -1 -1 -2 -2 -2 -2 -3 -3 -3
11 10 10 10 11 12 12 11 11 10 10 9 9 8 7 7 7 6 5 5 4 3 3 2 2 0 0 -0 -0 -1 -2 -3 -2 -2 -2 -2 -1 -2 -3 -3 -3 -4 -4
9 8 9 11 12 12 12 12 11 10 9 8 7 6 6 5 5 4 4 3 2 1 1 0 -0 -0 -0 -1 -1 -1 -2 -3 -3 -2 -2 -2 -2 -2 -3 -4 -3 -4 -5
8 9 9 9 10 11 10 10 9 7 6 4 4 3 3 2 2 2 1 0 -0 -0 -0 -0 -1 -1 -1 -1 -1 -2 -2 -3 -3 -3 -3 -3 -3 -3 -3 -4 -4 -4 -5
8 9 9 9 9 9 8 8 6 5 4 2 2 1 0 0 0 -0 1 0 0 -1 -0 -1 -2 -2 -1 -1 -2 -2 -3 -4 -4 -4 -4 -4 -3 -3 -4 -4 -4 -5 -5
8 7 6 7 6 5 5 4 3 3 2 2 2 2 1 1 0 -1 -1 -1 -2 -1 -2 -1 -1 -3 -3 -3 -3 -3 -4 -4 -5 -4 -4 -4 -4 -4 -4 -4 -5 -5 -5
5 4 4 3 3 3 5 5 5 3 2 1 1 0 0 0 -0 -0 -1 -1 -2 -2 -3 -3 -3 -4 -4 -4 -5 -5 -5 -5 -5 -5 -5 -5 -5 -5 -5 -5 -5 -5 -6
4 3 3 3 1 2 2 3 2 1 1 1 0 0 0 -0 -0 -1 -1 -3 -3 -4 -4 -4 -5 -5 -6 -6 -7 -7 -8 -7 -7 -7 -6 -6 -6 -6 -6 -6 -5 -6 -6
3 2 2 1 1 0 0 2 1 1 0 -0 -0 -0 -0 -1 -1 -2 -2 -3 -4 -4 -5 -6 -6 -7 -7 -7 -8 -8 -9 -9 -8 -8 -7 -7 -7 -7 -6 -6 -6 -6 -7
1 1 0 -1 -0 1 1 1 0 -1 -1 -1 -1 -1 -1 -1 -2 -3 -3 -3 -5 -4 -5 -6 -7 -9 -10 -9 -10 -10 -10 -9 -9 -8 -8 -8 -7 -7 -6 -7 -6 -6 -7
0 -0 -1 -0 0 0 0 -1 -1 -1 -1 -1 -1 -1 -2 -2 -3 -5 -7 -5 -5 -6 -6 -7 -8 -8 -9 -10 -10 -10 -10 -10 -9 -8 -9 -8 -7 -7 -6 -6 -7 -7 -7

GFSMW_850_temp_045.txt.gz
Temp
13 13 13 12 12 12 12 12 10 10 11 11 12 12 12 12 12 12 12 12 11 12 12 11 10 11 10 9 9 8 9 9 9 8 9 9 8 7 6 6 6 6 5
16 14 14 15 13 14 13 12 11 11 11 11 12 12 12 12 13 12 11 11 10 10 11 11 10 10 10 9 8 8 8 9 8 8 8 9 9 7 6 6 6 5 4
18 16 15 16 15 15 14 13 13 13 12 13 13 13 13 13 12 12 12 11 10 11 10 10 10 9 9 8 8 9 9 9 7 8 8 8 9 9 8 5 5 5 4
19 18 16 16 15 15 15 14 14 14 13 13 13 13 13 13 13 13 11 10 11 10 10 9 9 9 8 8 8 8 8 8 8 7 8 8 6 7 8 7 5 4 3
20 19 18 17 16 15 15 14 14 14 14 13 13 14 13 14 14 13 12 11 10 10 9 9 9 9 8 8 7 7 8 7 8 7 6 5 6 5 5 6 7 6 6
21 20 19 18 17 17 15 15 14 14 14 14 13 13 13 13 13 13 12 11 10 9 9 9 10 10 9 8 8 7 7 8 7 7 5 6 6 6 6 6 6 6 5
22 21 20 20 19 17 16 15 15 15 14 14 13 12 13 13 13 12 11 11 10 9 9 10 10 10 9 8 7 7 7 7 6 5 4 5 5 5 4 4 4 4 4
22 22 22 21 20 19 17 16 15 15 15 13 13 13 13 14 13 13 12 11 12 10 9 9 10 9 8 7 7 7 6 6 6 4 3 3 3 3 3 3 3 3 3
23 22 22 22 21 20 19 17 15 15 15 13 12 13 13 14 13 14 12 12 10 9 9 9 9 8 7 6 7 6 5 5 4 3 1 1 1 1 2 2 2 2 1
22 22 22 22 21 21 20 18 16 15 14 13 12 13 13 13 13 13 12 10 10 9 10 9 9 8 7 6 6 5 5 4 2 1 1 0 1 2 2 2 1 1 1
22 21 20 21 20 20 19 18 16 16 14 12 12 11 12 12 12 12 10 10 9 9 9 9 7 6 6 6 4 4 3 2 1 1 1 0 0 1 1 1 1 1 1
22 21 20 19 18 18 18 17 16 15 16 14 13 12 10 10 11 10 10 10 9 8 8 8 8 6 6 4 4 3 1 1 0 1 1 -0 0 -0 1 0 0 0 0
22 21 19 18 18 17 16 16 15 15 15 15 13 12 11 11 11 10 10 9 9 8 8 7 6 5 4 3 2 2 0 1 1 0 -0 -1 -0 -0 -1 -0 -0 0 0
21 21 20 19 18 16 15 14 14 14 14 13 12 11 10 10 10 9 9 9 8 8 7 6 5 4 3 2 2 1 1 1 0 0 -0 -0 -1 -1 -0 0 0 0 -0
20 20 19 18 17 15 14 13 11 11 11 11 10 9 9 8 8 7 7 7 7 7 6 6 4 3 3 2 2 1 -1 -0 0 -0 -1 -1 -1 -0 -0 -0 -0 -0 -0
19 18 18 17 15 14 13 11 10 9 9 9 8 7 7 7 6 6 7 7 6 6 5 5 4 3 2 1 1 0 -0 -1 -0 -1 -1 -1 -1 -1 -1 -1 -1 -1 -2
16 16 15 14 13 12 11 10 9 8 8 7 6 6 6 7 7 6 6 5 5 4 3 2 2 1 0 -0 0 -0 -1 -1 -1 -2 -2 -1 -1 -1 -1 -1 -1 -2 -2
14 13 12 12 11 11 10 9 8 8 7 6 6 6 6 6 6 5 4 4 3 2 2 1 0 0 0 -0 -0 -0 -1 -1 -2 -2 -2 -1 -1 -1 -2 -2 -2 -2 -2
12 12 11 10 10 9 9 8 7 7 6 5 5 4 4 3 2 2 2 2 1 0 1 0 0 -0 -0 -0 -1 -1 -2 -3 -3 -3 -2 -2 -2 -2 -3 -3 -3 -3 -3
10 10 9 9 8 8 8 7 6 6 5 4 4 3 3 2 1 1 1 1 1 1 0 -1 -1 -1 -2 -2 -2 -2 -3 -4 -4 -4 -3 -3 -3 -3 -4 -4 -4 -4 -4
9 8 8 8 8 7 7 6 5 5 4 3 2 2 2 2 1 0 0 0 0 -0 -1 -1 -2 -2 -2 -3 -3 -4 -4 -5 -5 -6 -6 -5 -5 -5 -5 -5 -5 -5 -5
8 8 8 7 7 6 6 5 4 2 2 3 3 1 0 0 0 0 -0 -1 -1 -1 -2 -2 -3 -3 -3 -4 -4 -5 -5 -6 -6 -6 -6 -7 -6 -6 -6 -6 -5 -5 -5
8 7 7 6 5 5 4 3 2 2 2 1 0 0 -0 -0 -1 -0 -1 -1 -1 -2 -3 -3 -4 -4 -5 -5 -6 -6 -6 -6 -6 -6 -6 -6 -6 -6 -7 -7 -7 -6 -6
8 7 6 5 4 4 3 2 1 1 1 0 -0 -1 -1 -1 -2 -2 -2 -2 -3 -4 -4 -5 -5 -6 -7 -7 -6 -6 -6 -7 -8 -8 -8 -7 -7 -7 -7 -7 -7 -7 -7
7 6 5 4 3 2 1 1 1 0 0 -1 -1 -2 -2 -2 -3 -3 -3 -3 -2 -3 -3 -4 -5 -6 -6 -7 -8 -8 -9 -9 -9 -9 -9 -9 -8 -8 -8 -7 -7 -7 -6
5 4 3 2 1 0 -0 -1 -0 -0 -1 -2 -3 -3 -3 -3 -4 -4 -4 -4 -4 -4 -4 -5 -6 -7 -7 -8 -9 -9 -9 -9 -10 -10 -10 -10 -9 -9 -9 -8 -7 -6 -6

GFSMW_850_temp_048.txt.gz
Temp
12 11 11 11 10 11 10 10 10 10 9 9 10 10 11 11 11 12 12 12 12 12 12 11 10 12 11 10 10 10 9 10 10 10 10 9 9 9 8 8 7 6 6
13 13 12 11 11 11 11 10 10 10 9 10 10 11 11 11 12 12 12 12 12 12 12 11 11 12 11 10 10 10 9 9 9 10 9 9 9 8 8 8 7 6 6
14 13 13 13 12 12 12 12 11 10 10 11 11 11 12 12 12 12 12 12 12 11 11 11 11 10 11 10 10 10 9 9 9 9 9 8 9 9 9 7 7 6 5
15 14 13 13 13 13 13 12 12 12 11 12 12 13 12 13 13 13 12 12 12 12 11 11 10 10 10 9 9 9 9 8 8 8 8 8 7 7 7 7 6 6 6
19 16 15 15 14 14 14 14 13 13 13 13 12 13 13 13 13 13 13 13 12 11 10 10 10 10 9 9 9 9 8 8 8 8 7 7 6 6 6 6 6 6 5
20 19 17 16 16 16 15 14 14 14 14 14 14 13 13 13 13 13 13 13 12 12 11 11 10 9 9 9 8 8 8 7 8 7 7 6 6 6 6 6 5 6 6
21 20 19 17 17 16 16 15 15 14 14 14 14 14 13 13 14 13 13 13 11 10 11 11 10 9 9 8 7 7 7 7 7 6 6 6 5 5 5 3 4 4 4
22 21 20 19 18 17 16 15 15 15 14 14 14 14 15 14 14 13 13 13 13 11 9 10 9 9 9 8 7 7 7 6 6 5 5 5 5 4 4 3 3 3 3
23 22 21 20 19 18 18 17 15 15 14 14 14 14 15 14 12 13 13 13 12 11 10 9 9 9 9 8 7 7 6 6 4 5 5 4 4 3 2 2 2 2 2
23 23 22 22 21 19 19 18 17 16 15 15 14 14 14 13 12 12 12 12 12 11 10 9 9 9 8 7 7 7 6 5 4 4 3 2 2 3 2 2 2 2 1
22 22 22 23 22 21 20 19 18 16 16 15 15 14 14 13 12 12 11 11 10 9 9 9 9 8 8 7 6 6 5 3 3 2 1 1 1 2 1 1 1 1 1
23 21 21 21 21 21 21 19 18 17 16 16 15 15 13 12 11 10 10 10 10 9 9 8 8 8 8 6 5 4 3 3 3 2 2 1 1 1 0 0 0 0 -0
22 22 21 19 19 19 19 19 18 17 16 15 14 13 12 11 11 10 10 9 9 9 8 8 8 7 5 4 3 2 2 2 2 1 1 0 0 1 0 0 -0 -1 -1
22 22 21 20 19 18 17 17 16 16 16 15 14 13 13 11 11 10 9 9 8 8 8 7 6 6 5 4 4 3 2 2 1 1 0 -0 -0 -0 -0 -0 -0 -1 -0
22 22 21 20 18 17 16 15 15 15 15 14 13 12 11 10 9 9 8 8 8 7 7 7 6 5 4 4 3 2 1 1 0 -0 -1 -0 -1 -0 -1 -1 -1 -1 -0
21 21 21 19 17 16 15 14 13 13 12 11 11 10 9 8 7 7 6 6 7 6 6 5 4 3 3 2 1 1 -0 -0 -1 -0 -1 -1 -1 -1 -1 -1 -0 -1 -1
20 19 19 18 16 15 13 12 11 10 10 10 9 8 7 7 7 6 6 6 5 5 4 4 3 2 1 1 0 0 -0 -1 -1 -1 -1 -1 -2 -1 -1 -1 -1 -1 -1
18 17 17 16 14 12 11 10 9 9 9 8 7 7 7 7 7 6 5 5 4 4 3 3 1 1 0 -0 -1 -1 -1 -1 -1 -2 -3 -2 -2 -2 -2 -2 -2 -2 -2
16 15 14 13 12 11 10 9 8 8 7 7 7 6 6 5 5 5 4 4 3 1 1 0 0 -0 -1 -1 -1 -1 -1 -1 -2 -2 -2 -3 -3 -3 -3 -3 -4 -4 -4
14 13 12 11 10 10 9 8 8 7 6 6 5 4 4 3 3 2 2 2 1 1 1 0 -0 -1 -1 -2 -1 -1 -2 -2 -2 -2 -3 -3 -3 -4 -4 -4 -5 -5 -5
12 11 11 10 9 9 8 8 7 6 5 5 4 3 3 3 2 2 2 1 1 0 0 -0 -1 -1 -2 -2 -2 -2 -2 -3 -3 -3 -3 -4 -4 -5 -5 -6 -6 -6 -6
11 10 10 9 9 8 8 7 6 5 4 4 4 4 3 1 1 1 0 0 -0 -0 -1 -1 -2 -3 -3 -3 -3 -3 -2 -3 -4 -4 -5 -5 -5 -6 -6 -6 -6 -6 -7
10 10 9 8 8 7 7 6 4 4 4 3 2 2 1 1 0 0 -0 -0 -1 -1 -2 -2 -2 -3 -4 -4 -3 -3 -4 -4 -5 -5 -5 -6 -6 -7 -7 -7 -7 -7 -7
10 9 8 7 7 6 5 4 3 2 2 1 1 0 0 -0 -0 -1 -1 -1 -1 -2 -2 -2 -3 -4 -4 -4 -4 -4 -4 -5 -5 -6 -6 -7 -8 -9 -9 -9 -8 -8 -7
10 9 7 6 5 5 4 3 2 2 1 1 -0 -0 -1 -1 -1 -2 -2 -1 -1 -2 -2 -3 -3 -4 -4 -4 -6 -6 -6 -7 -7 -8 -8 -9 -10 -10 -10 -10 -10 -10 -8
9 7 6 5 4 3 2 2 1 1 0 -0 -1 -1 -1 -2 -2 -2 -2 -3 -3 -3 -4 -4 -5 -5 -5 -6 -7 -7 -8 -8 -9 -9 -11 -11 -11 -12 -12 -12 -12 -12 -11

GFSMW_850_temp_051.txt.gz
Temp
11 10 9 9 8 8 8 8 8 8 8 9 8 9 10 11 11 11 12 12 12 12 12 12 11 11 12 11 11 10 10 10 10 10 10 10 10 9 9 9 8 8 7
11 11 10 10 9 9 9 8 8 8 9 8 10 10 11 11 11 12 12 11 11 12 11 12 12 12 12 11 10 10 10 10 10 10 10 9 9 9 9 8 8 7 7
12 11 11 12 11 11 11 11 10 9 10 11 10 11 10 11 11 11 11 12 12 12 11 12 12 11 12 11 10 10 10 10 10 9 9 9 9 8 8 8 7 7 7
13 12 12 12 12 12 12 12 11 11 11 11 11 10 10 10 11 12 12 12 12 12 12 12 12 11 11 11 10 10 10 9 9 9 9 8 8 8 7 7 7 6 6
14 12 13 13 13 13 12 12 12 11 11 10 11 11 11 12 12 12 12 12 12 12 11 11 11 11 10 10 9 10 9 9 9 8 8 8 7 7 6 6 6 6 6
14 14 15 14 13 13 13 13 12 12 12 12 12 11 12 12 12 13 13 13 12 11 12 11 11 11 10 10 9 9 9 8 8 8 7 7 8 6 6 5 5 6 6
16 15 14 14 14 13 13 13 13 13 13 13 13 13 12 13 13 13 13 13 12 12 13 11 10 12 11 10 9 9 8 8 7 7 7 6 6 5 5 4 5 5 5
17 17 16 16 15 15 14 13 14 13 13 13 13 13 14 14 13 13 13 13 12 13 13 13 11 11 10 10 9 9 8 7 7 7 6 5 4 4 4 4 4 3 3
19 18 18 17 17 16 15 15 14 14 14 13 13 14 14 14 14 13 13 13 13 13 12 12 12 10 9 10 9 8 8 7 7 6 6 4 4 4 3 3 3 2 2
20 20 19 19 18 18 17 16 16 15 15 14 14 14 14 14 13 13 13 13 13 12 12 12 11 10 9 9 8 8 7 6 6 5 4 4 4 3 3 3 2 1 2
22 21 20 18 19 18 17 16 15 14 15 15 15 14 14 14 14 14 13 12 11 12 12 11 10 9 9 8 8 7 7 5 5 4 3 2 2 2 2 1 1 1 1
22 22 21 20 19 18 16 16 17 15 15 15 14 14 14 14 13 13 13 12 11 11 11 9 9 9 8 8 8 7 6 4 4 3 2 2 2 1 1 1 1 1 0
22 21 22 21 20 19 18 17 17 17 15 14 14 14 13 13 12 12 11 11 10 10 9 9 8 8 8 8 8 6 4 3 3 2 2 1 0 0 1 0 0 -0 0
22 21 21 21 21 19 18 17 16 16 15 14 15 16 15 14 13 12 10 10 9 9 9 9 8 8 7 6 5 4 3 3 3 1 1 1 0 0 -0 -0 -0 -1 -1
22 21 20 20 20 20 17 16 16 15 16 16 15 14 14 13 12 11 10 9 9 8 8 8 8 7 6 5 4 3 3 2 1 0 0 -0 -0 -1 -1 -1 -1 -1 -1
22 21 21 19 18 18 18 16 15 16 16 16 15 14 13 12 11 10 9 8 8 8 7 7 6 5 4 3 2 2 1 0 0 0 -1 -1 -1 -1 -1 -2 -2 -2 -2
21 21 20 19 18 17 17 16 16 15 14 14 13 12 11 10 10 8 8 7 7 7 6 6 5 3 2 2 1 0 0 0 -0 -1 -1 -1 -2 -3 -3 -2 -2 -2 -2
21 20 20 18 17 16 15 15 14 12 12 11 10 10 10 9 8 7 6 6 6 5 5 4 3 2 1 0 0 -0 -1 -1 -1 -1 -2 -2 -2 -3 -3 -2 -3 -3 -3
19 18 18 17 16 15 14 13 11 11 10 10 9 9 9 8 6 6 5 5 4 4 3 2 1 0 -0 -0 -1 -1 -1 -1 -1 -1 -2 -2 -2 -3 -3 -3 -3 -3 -3
18 17 16 15 14 13 12 11 11 10 9 9 8 7 7 6 6 5 4 3 2 1 1 0 -0 -0 -0 -1 -1 -1 -1 -1 -2 -2 -2 -2 -3 -3 -4 -5 -5 -5 -5
17 15 15 13 12 11 11 10 9 8 8 7 6 6 6 5 5 4 3 3 2 1 0 -0 -1 -1 -1 -1 -1 -2 -2 -3 -2 -2 -2 -2 -3 -4 -5 -6 -7 -7 -7
15 14 13 12 11 10 10 9 8 7 6 6 5 4 4 3 4 3 2 1 1 0 -0 -1 -1 -2 -2 -2 -2 -3 -3 -2 -2 -3 -3 -4 -4 -5 -6 -7 -7 -8 -9
13 12 11 10 9 9 9 8 7 6 5 5 4 3 3 3 3 1 1 0 0 0 -0 -1 -2 -3 -3 -3 -3 -3 -3 -3 -4 -4 -5 -5 -6 -7 -7 -8 -9 -9 -9
12 11 10 9 8 8 7 7 6 5 5 4 3 2 2 1 1 0 0 -0 -0 -1 -2 -2 -3 -3 -3 -3 -3 -4 -4 -4 -5 -5 -6 -7 -8 -8 -8 -9 -9 -10 -10
11 10 9 8 8 7 6 6 5 4 3 2 2 1 1 0 -0 -0 -1 -1 -1 -1 -1 -2 -2 -3 -3 -4 -4 -4 -4 -5 -6 -7 -8 -8 -8 -8 -9 -10 -11 -11 -10
10 9 8 8 7 6 5 4 4 3 2 1 0 -0 -0 -1 -1 -1 -1 -2 -2 -2 -2 -2 -3 -3 -4 -5 -5 -6 -7 -8 -8 -8 -9 -11 -11 -12 -12 -12 -12 -13 -12

GFSMW_850_temp_054.txt.gz
Temp
11 10 9 9 8 8 8 9 8 8 8 9 10 10 10 10 11 11 12 12 12 12 12 12 12 12 12 12 11 11 11 10 10 10 10 10 10 9 9 9 9 9 8
12 10 9 8 8 8 8 8 8 9 9 9 9 9 10 11 11 11 11 12 12 12 13 12 12 12 12 12 11 11 11 10 10 10 10 10 9 10 9 9 9 8 8
13 11 10 9 8 8 9 9 8 8 9 9 9 9 10 10 11 11 12 12 12 12 12 12 12 11 11 11 11 11 11 11 10 10 10 9 9 9 9 9 9 8 8
13 12 11 9 10 10 9 9 9 9 9 9 9 9 10 11 11 11 12 12 12 12 12 12 11 11 11 11 11 11 11 10 10 9 9 9 9 8 8 9 8 8 7
14 13 12 12 12 11 10 10 9 9 9 9 10 10 11 11 11 12 12 12 12 12 12 12 11 11 12 11 11 11 11 10 9 9 9 8 8 7 7 7 7 7 7
14 14 13 13 13 12 11 11 11 10 9 10 11 11 11 11 12 13 12 12 12 12 12 12 12 11 11 11 11 10 11 9 9 9 8 8 7 7 7 6 6 6 6
14 13 13 12 12 12 12 12 12 12 12 12 12 12 12 12 12 12 12 12 12 12 12 12 12 11 10 11 11 10 10 9 9 8 8 7 7 6 7 6 5 5 4
14 14 14 14 14 13 12 12 12 12 12 12 12 12 12 12 12 12 12 12 12 13 12 12 12 12 12 11 10 10 9 9 9 8 8 7 6 6 6 5 4 4 3
15 15 14 14 15 14 14 13 13 13 13 13 12 13 13 12 13 12 12 12 12 13 12 12 12 12 12 11 10 9 9 9 8 8 7 6 6 5 4 4 3 3 3
16 16 14 15 15 15 15 15 14 14 14 14 13 13 13 14 13 13 13 13 12 12 12 12 12 11 11 11 10 9 9 8 8 7 6 5 5 5 3 3 3 3 2
17 16 17 17 17 16 14 14 13 13 13 13 14 14 13 13 12 12 13 13 12 11 11 12 12 11 11 10 9 9 9 8 7 7 5 4 4 3 2 2 2 2 1
21 20 19 18 18 16 14 14 13 13 15 15 18 16 13 12 12 11 12 12 12 11 11 11 11 10 10 9 9 9 8 8 7 6 5 4 3 2 2 1 1 1 1
21 21 20 20 19 18 16 16 15 16 16 16 14 14 13 12 11 13 12 12 12 11 10 11 10 10 9 9 9 8 8 6 6 5 4 3 2 1 1 0 0 0 0
22 21 20 20 20 20 19 17 16 16 15 15 15 13 14 13 14 14 13 10 11 11 10 9 9 9 9 9 8 7 7 5 4 4 3 2 0 1 -0 -1 -1 -1 -1
21 21 21 19 19 19 19 19 18 17 16 15 15 14 14 14 13 13 14 11 10 9 9 9 9 9 8 8 7 6 5 4 3 3 2 1 0 -0 -1 -2 -2 -1 -1
22 21 21 21 19 20 20 19 19 18 16 16 15 15 14 14 14 14 12 11 10 9 9 8 8 8 8 7 6 4 3 3 2 2 0 -0 -1 -2 -2 -1 -2 -2 -2
22 21 21 21 19 19 20 19 18 17 17 15 15 15 14 14 13 12 11 10 9 9 8 8 7 7 6 5 4 3 2 2 1 -0 -0 -1 -2 -2 -1 -1 -2 -2 -3
21 21 21 21 19 18 18 17 16 16 16 16 15 14 13 12 11 10 9 9 8 7 7 6 6 5 4 3 2 2 1 0 -0 -1 -1 -2 -1 -1 -2 -2 -2 -2 -2
21 21 21 20 19 17 16 16 15 14 14 14 12 11 10 10 9 9 8 7 7 6 6 5 5 4 3 2 1 0 -1 -1 -1 -1 -1 -2 -2 -2 -3 -3 -3 -2 -2
21 21 20 19 18 17 16 15 14 13 12 11 11 10 9 9 9 8 7 7 6 5 4 3 2 1 1 -0 -1 -1 -1 -1 -2 -2 -2 -3 -3 -3 -3 -3 -3 -3 -4
20 19 19 18 17 16 15 14 13 12 11 11 10 9 8 8 7 7 6 6 4 3 2 1 -0 -0 -1 -1 -1 -1 -2 -2 -2 -3 -3 -3 -3 -3 -3 -4 -4 -5 -6
18 18 17 16 15 14 13 12 11 11 10 9 8 8 7 7 6 6 5 4 3 2 1 -0 -1 -1 -1 -1 -2 -2 -3 -3 -3 -3 -3 -3 -4 -4 -4 -5 -6 -6 -6
17 16 15 14 13 12 12 11 10 10 9 8 7 7 6 5 5 4 3 1 1 0 -0 -1 -1 -1 -2 -2 -3 -3 -3 -4 -4 -4 -4 -4 -5 -6 -7 -7 -8 -8 -8
16 15 13 12 11 10 10 9 9 8 7 7 6 5 4 3 2 1 1 1 0 -0 -1 -1 -1 -2 -2 -3 -3 -4 -4 -5 -5 -5 -6 -6 -6 -7 -8 -9 -9 -9 -10
14 13 13 11 10 9 9 8 8 7 6 5 4 3 2 2 1 0 -0 -0 -1 -1 -1 -2 -2 -3 -3 -4 -4 -5 -5 -5 -5 -6 -7 -7 -8 -8 -9 -10 -10 -10 -10
12 11 11 10 9 8 8 7 6 6 5 4 3 2 1 0 0 -0 -1 -2 -2 -3 -3 -4 -4 -4 -5 -5 -5 -5 -6 -6 -6 -7 -8 -9 -10 -10 -11 -11 -11 -12 -12

GFSMW_850_temp_060.txt.gz
Temp
10 9 9 8 9 9 9 9 10 10 9 9 9 10 10 11 11 12 12 12 11 12 11 12 14 12 12 12 12 12 11 11 11 10 10 10 10 10 10 10 10 10 10
10 9 8 8 8 9 9 9 9 9 9 9 9 9 10 10 11 11 11 11 12 11 12 12 13 12 12 12 13 12 12 11 10 10 10 9 10 10 10 10 10 9 9
11 10 9 8 9 8 8 8 8 9 9 8 9 9 9 10 10 10 11 11 11 10 11 12 11 12 11 12 12 12 12 11 11 10 10 9 10 10 10 10 10 9 9
11 11 11 10 10 9 8 8 8 8 8 8 9 9 9 9 10 10 11 11 11 10 11 11 11 12 12 12 12 12 11 11 10 10 10 9 9 9 9 10 9 9 8
14 13 12 13 12 11 9 8 8 8 8 8 8 9 9 9 9 10 11 11 11 11 11 11 11 12 12 12 12 11 11 11 10 10 10 9 9 9 8 8 9 8 8
15 14 13 13 12 12 11 9 8 8 8 8 9 8 9 10 10 10 10 10 11 11 11 11 12 12 12 12 12 11 11 11 11 10 10 9 9 9 8 8 9 8 7
16 15 14 13 13 13 13 11 10 9 8 8 8 8 9 10 10 10 11 11 11 11 11 11 12 12 12 12 12 11 11 10 10 10 10 10 10 8 8 7 7 7 7
16 17 16 15 15 14 14 13 12 11 9 9 8 9 9 9 9 10 10 11 11 11 11 12 12 12 12 12 12 11 11 10 10 10 10 10 10 9 8 7 6 7 6
17 18 17 16 16 15 15 14 14 13 11 11 11 11 10 10 10 10 10 10 11 11 11 11 12 12 11 11 11 11 11 11 10 10 10 10 10 9 8 7 7 7 5
17 16 17 18 17 17 16 15 15 14 14 13 12 12 12 11 11 11 11 11 11 12 12 12 12 11 11 11 11 10 11 11 11 10 10 10 9 8 7 7 7 6 5
19 19 18 19 18 17 16 16 15 15 14 14 14 14 14 14 13 13 13 12 12 12 12 12 11 11 11 12 11 10 10 10 10 10 10 9 8 8 7 7 6 5 4
20 19 19 17 17 16 16 16 16 15 15 15 14 14 14 14 14 14 13 12 12 11 12 11 11 10 11 11 11 10 10 10 10 9 9 9 8 8 7 5 5 4 3
21 20 18 19 19 17 17 16 17 17 16 15 15 14 14 14 13 12 12 12 12 12 12 11 10 10 11 12 11 11 10 9 9 9 8 8 8 7 6 5 3 3 2
20 20 19 20 20 19 19 18 18 18 16 16 15 14 14 14 14 13 13 13 12 12 12 11 11 11 11 11 11 10 9 9 8 8 8 8 7 6 5 3 2 2 1
21 21 20 21 21 20 20 19 19 19 18 16 15 15 15 15 14 13 13 13 13 12 12 11 11 11 10 11 10 10 9 9 8 8 8 7 5 4 3 2 2 1 1
21 22 22 21 21 21 21 21 20 20 19 18 18 17 14 14 14 14 13 13 13 12 11 10 10 10 10 10 10 9 9 8 8 8 6 4 3 3 2 1 0 -0 -0
21 21 22 22 22 22 22 21 21 19 19 19 18 17 15 14 13 13 12 12 11 11 11 10 10 10 9 9 9 9 8 8 7 5 4 3 2 1 1 0 -0 -1 -2
21 21 21 21 22 21 21 21 20 20 19 19 18 17 16 14 12 12 12 10 10 10 10 10 9 9 9 9 8 9 8 6 5 4 3 2 1 0 -0 -1 -1 -2 -2
21 20 20 21 22 21 21 20 20 20 19 18 17 17 16 14 13 12 11 10 10 9 9 9 8 9 9 9 8 6 5 4 3 2 1 1 -0 -1 -1 -2 -2 -2 -2
21 21 21 20 19 21 21 20 19 19 18 17 17 16 15 13 12 10 10 10 9 9 9 8 8 8 7 6 5 4 4 3 2 1 -0 -1 -1 -2 -2 -2 -2 -3 -3
20 21 21 21 21 20 20 19 18 18 17 16 16 14 12 10 10 10 9 9 9 8 8 7 7 6 4 4 3 2 2 1 0 -1 -1 -2 -2 -2 -2 -3 -3 -3 -3
19 19 20 19 18 18 18 18 18 17 15 14 13 12 12 10 9 9 9 8 8 7 7 6 4 3 2 2 1 -0 -1 -1 -1 -2 -3 -3 -3 -3 -3 -4 -4 -4 -5
16 17 18 17 18 17 17 16 16 14 13 12 12 11 10 9 8 8 7 6 5 5 5 3 3 2 1 0 -0 -1 -1 -2 -2 -3 -3 -4 -4 -4 -4 -5 -5 -6 -6
13 13 13 15 15 16 15 14 13 12 11 11 10 9 9 8 7 6 5 4 4 3 3 2 1 1 -0 -1 -1 -2 -2 -3 -4 -4 -4 -5 -5 -6 -6 -6 -7 -8 -8
11 11 12 11 14 15 12 10 10 10 10 10 9 8 7 6 5 4 3 2 2 1 1 1 0 -0 -1 -2 -3 -3 -4 -4 -5 -5 -6 -7 -7 -8 -8 -8 -9 -9 -9
12 10 10 9 10 10 9 9 8 8 8 8 7 6 5 4 3 3 3 1 1 0 -0 -0 -1 -2 -3 -3 -4 -5 -5 -6 -6 -7 -8 -9 -9 -9 -10 -10 -10 -10 -11